Weather in Vertikos

Russia / Tomsk District     59°23′17″N   79°40′19″E
temp.,
°C
wind,
m/s
gust,
m/s
humid.,
%
clouds,
%
prec.,
mm/h
press.,
hPa
HPBL,
m
2 august, mon
mon201:00+12sse338098 0.0 101030
04:00+11se3389100 0.0 100931
07:00+12se3587100 0.0 1008119
10:00+17ese3469100 0.0 1007499
13:00+18sse4462100 0.0 1006996
16:00+14ssw4580100 0.0 1006245
19:00+13ssw3586100 0.1 1006195
22:00+12sw1286100 0.0 100627
3 august, tue
tue301:00+12w118986 0.0 100613
04:00+10w1192100 0.0 100511
07:00+12sw1189100 0.0 100634
10:00+15w1176100 0.0 1006232
13:00+16ese007399 0.0 1006263
16:00+19ese216332 0.0 1006669
19:00+20s115810 0.0 1005925
22:00+15ssw228158 0.0 100611
4 august, wed
wed401:00+15w118399 0.1 100611
04:00+13w229070 0.0 100719
07:00+14wnw128940 0.1 100727
10:00+16wsw118393 0.0 1008133
13:00+21wsw116742 0.7 1008688
16:00+20nnw437260 0.5 1008659
19:00+21nnw23635 0.7 1008655
22:00+16nw228520 0.1 100816
5 august, thu
thu501:00+15nw2392100 0.1 100825
04:00+14nw229594 0.0 100815
07:00+15wnw2295100 0.1 100845
10:00+19nnw11788 0.1 1008440
13:00+22nnw226632 1.1 10081015
16:00+23nne226241 1.4 10071141
19:00+24nne125746 2.0 10071075
22:00+18wnw33805 0.0 100722
6 august, fri
fri601:00+16nw3389100 0.6 100745
04:00+16nnw2290100 0.0 100726
07:00+17n228797 0.0 100732
10:00+20n3475100 0.0 1007359
13:00+25nne34537 0.0 10071141
16:00+28nne244358 0.0 10061871
19:00+27ne344814 0.0 10061261
22:00+21nnw226498 0.1 100712